AMC-11

Last updated on Thu Jul 03 2025 00:02:44 GMT+0000 (Coordinated Universal Time)

1 28252U 04017A 25183.54455391 -.00000042 00000+0 00000+0 0 9991 2 28252 0.0156 359.2350 0003061 102.6552 263.8688 1.00271796 77368
UTC large
Height (km)
Speed (km/s)
/
Latitude / Longitude
Inclination (degrees)
Orbital Period (minutes)
Azimuth
Elevation
Range (km)
Doppler Factor

Next 0 passes for location: London (51.5072 / 0.1276)

Sorry there are no passes over London.